GPM-CORE

Last updated on Mon Sep 15 2025 00:02:30 GMT+0000 (Coordinated Universal Time)

1 39574U 14009C 25257.21975507 .00010563 00000+0 22927-3 0 9998 2 39574 64.9759 152.5332 0006452 263.1718 96.8689 15.44793831655182
UTC large
Height (km)
Speed (km/s)
/
Latitude / Longitude
Inclination (degrees)
Orbital Period (minutes)
Azimuth
Elevation
Range (km)
Doppler Factor

Next 0 passes for location: London (51.5072 / 0.1276)

Sorry there are no passes over London.